DECPP EDDK-EDDK

Flight info

Callsign DECPP
Flight time 0h 2m
Altitude
Route
Aircraft

Departure

Time 2026-04-26 18:38
Airport Cologne Bonn Airport (EDDK)

Arrival

Time 2026-04-26 18:40
Airport Cologne Bonn Airport (EDDK)
Time Latitude Longitude Altitude Speed Heading
2026-04-26 18:33 50.87140 7.12216 228 ft 0 kts 229°
2026-04-26 18:34 50.87133 7.12205 228 ft 4 kts 227°
2026-04-26 18:34 50.87101 7.12152 228 ft 13 kts 220°
2026-04-26 18:34 50.86997 7.12213 228 ft 24 kts 138°
2026-04-26 18:35 50.86852 7.12425 227 ft 32 kts 136°
2026-04-26 18:35 50.86668 7.12692 226 ft 39 kts 137°
2026-04-26 18:35 50.86463 7.12981 235 ft 41 kts 136°
2026-04-26 18:35 50.86246 7.13299 241 ft 44 kts 135°
2026-04-26 18:36 50.86017 7.13634 250 ft 45 kts 135°
2026-04-26 18:36 50.85866 7.13838 264 ft 5 kts 139°
2026-04-26 18:36 50.85876 7.13841 264 ft 4 kts 292°
2026-04-26 18:36 50.85880 7.13831 264 ft 0 kts 318°
2026-04-26 18:37 50.85956 7.13721 257 ft 46 kts 317°
2026-04-26 18:37 50.86273 7.13263 345 ft 74 kts 317°
2026-04-26 18:37 50.86697 7.12648 480 ft 86 kts 317°
2026-04-26 18:38 50.87085 7.11937 697 ft 84 kts 284°
2026-04-26 18:38 50.86887 7.11015 827 ft 95 kts 239°
2026-04-26 18:38 50.86278 7.10692 937 ft 103 kts 163°
2026-04-26 18:38 50.85629 7.11235 981 ft 104 kts 149°
2026-04-26 18:39 50.85066 7.11880 959 ft 101 kts 133°
2026-04-26 18:39 50.84611 7.12723 934 ft 98 kts 129°
2026-04-26 18:39 50.84181 7.13569 900 ft 98 kts 123°
2026-04-26 18:39 50.84049 7.14493 915 ft 87 kts 45°
2026-04-26 18:40 50.84492 7.15218 790 ft 97 kts 28°
2026-04-26 18:40 50.85100 7.14883 485 ft 99 kts 329°
2026-04-26 18:40 50.85558 7.14285 342 ft 75 kts 317°
2026-04-26 18:40 50.85863 7.13853 269 ft 47 kts 316°
2026-04-26 18:41 50.86096 7.13513 264 ft 56 kts 317°
2026-04-26 18:41 50.86437 7.13019 403 ft 75 kts 316°
2026-04-26 18:41 50.86752 7.12368 624 ft 77 kts 275°
2026-04-26 18:41 50.86581 7.11504 791 ft 86 kts 253°
2026-04-26 18:42 50.86228 7.10810 992 ft 90 kts 178°
2026-04-26 18:42 50.85624 7.11337 885 ft 108 kts 147°
2026-04-26 18:42 50.84999 7.11970 845 ft 103 kts 142°
2026-04-26 18:42 50.84486 7.12723 822 ft 100 kts 132°
2026-04-26 18:43 50.84082 7.13558 872 ft 87 kts 96°
2026-04-26 18:43 50.84328 7.14280 915 ft 85 kts 48°
2026-04-26 18:43 50.84702 7.14532 1060 ft 63 kts 15°
2026-04-26 18:43 50.85097 7.14979 1106 ft 34 kts 319°
2026-04-26 18:44 50.85371 7.14509 626 ft 70 kts 315°
2026-04-26 18:44 50.85707 7.14067 344 ft 57 kts 317°
2026-04-26 18:44 50.85953 7.13725 257 ft 37 kts 318°
2026-04-26 18:44 50.86226 7.13337 293 ft 69 kts 321°
2026-04-26 18:45 50.86616 7.12749 437 ft 84 kts 319°
2026-04-26 18:45 50.86850 7.12072 759 ft 75 kts 245°
2026-04-26 18:45 50.86519 7.11334 921 ft 79 kts 187°
2026-04-26 18:45 50.85909 7.11596 891 ft 99 kts 161°
2026-04-26 18:46 50.85252 7.11990 967 ft 97 kts 146°
2026-04-26 18:46 50.84714 7.12664 938 ft 105 kts 136°
2026-04-26 18:46 50.84185 7.13450 947 ft 103 kts 122°
2026-04-26 18:46 50.84247 7.14460 942 ft 101 kts 44°
2026-04-26 18:47 50.84767 7.15180 1010 ft 77 kts 33°
2026-04-26 18:47 50.85155 7.14705 771 ft 81 kts 327°
2026-04-26 18:47 50.85561 7.14234 459 ft 69 kts 326°
2026-04-26 18:47 50.85896 7.13798 272 ft 49 kts 322°
2026-04-26 18:48 50.86162 7.13416 287 ft 65 kts 320°
2026-04-26 18:48 50.86449 7.12993 401 ft 69 kts 313°
2026-04-26 18:48 50.86399 7.12292 612 ft 82 kts 256°
2026-04-26 18:48 50.86210 7.11353 723 ft 95 kts 255°
2026-04-26 18:49 50.85806 7.11302 940 ft 91 kts 144°
2026-04-26 18:49 50.85233 7.11906 859 ft 102 kts 144°
2026-04-26 18:49 50.84660 7.12507 873 ft 98 kts 143°
2026-04-26 18:49 50.84428 7.13408 841 ft 95 kts 78°
2026-04-26 18:50 50.84752 7.14279 788 ft 94 kts 47°
2026-04-26 18:50 50.85171 7.14779 905 ft 61 kts 315°
2026-04-26 18:50 50.85578 7.14220 503 ft 78 kts 322°
2026-04-26 18:50 50.85930 7.13754 262 ft 53 kts 321°
2026-04-26 18:51 50.86213 7.13347 274 ft 68 kts 319°
2026-04-26 18:51 50.86596 7.12780 450 ft 79 kts 317°
2026-04-26 18:51 50.86693 7.11983 696 ft 85 kts 248°
2026-04-26 18:51 50.86349 7.11086 730 ft 102 kts 242°
2026-04-26 18:52 50.85783 7.10569 808 ft 101 kts 166°
2026-04-26 18:52 50.85267 7.11103 1035 ft 76 kts 147°
2026-04-26 18:52 50.84784 7.11559 1049 ft 89 kts 146°
2026-04-26 18:52 50.84257 7.12090 1102 ft 92 kts 147°
2026-04-26 18:53 50.83701 7.12671 1150 ft 93 kts 148°
2026-04-26 18:53 50.83314 7.12317 1274 ft 80 kts 288°
2026-04-26 18:53 50.83563 7.11513 1279 ft 87 kts 298°
2026-04-26 18:53 50.84019 7.10962 1334 ft 85 kts 352°
2026-04-26 18:54 50.84438 7.10452 1463 ft 78 kts 277°
2026-04-26 18:54 50.84103 7.09885 1582 ft 80 kts 183°
2026-04-26 18:54 50.83735 7.10403 1607 ft 83 kts 87°
2026-04-26 18:54 50.83975 7.11369 1399 ft 103 kts 62°
2026-04-26 18:55 50.84267 7.12426 1235 ft 109 kts 60°
2026-04-26 18:55 50.84678 7.13543 807 ft 132 kts 52°
2026-04-26 18:55 50.85228 7.14513 685 ft 87 kts 24°
2026-04-26 18:55 50.85628 7.14129 666 ft 83 kts 323°
2026-04-26 18:56 50.86029 7.13577 424 ft 64 kts 320°
2026-04-26 18:56 50.86331 7.13165 289 ft 58 kts 321°
2026-04-26 18:56 50.86597 7.12793 230 ft 42 kts 319°
2026-04-26 18:56 50.86749 7.12630 227 ft 13 kts 12°
2026-04-26 18:57 50.86808 7.12701 227 ft 0 kts 48°
2026-04-26 18:57 50.86830 7.12738 228 ft 6 kts 44°
2026-04-26 18:58 50.86881 7.12733 230 ft 12 kts 319°
2026-04-26 18:58 50.86938 7.12650 229 ft 10 kts 317°
2026-04-26 18:58 50.86993 7.12571 230 ft 13 kts 317°
2026-04-26 18:58 50.87067 7.12464 229 ft 15 kts 319°
2026-04-26 18:59 50.87141 7.12364 229 ft 13 kts 320°
2026-04-26 18:59 50.87212 7.12287 227 ft 13 kts 347°
2026-04-26 18:59 50.87303 7.12312 224 ft 14 kts 20°
2026-04-26 18:59 50.87387 7.12355 224 ft 12 kts 21°
2026-04-26 19:00 50.87464 7.12388 224 ft 11 kts 20°
2026-04-26 19:00 50.87531 7.12428 224 ft 10 kts 15°
2026-04-26 19:00 50.87593 7.12461 224 ft 9 kts 23°
2026-04-26 19:00 50.87651 7.12490 224 ft 8 kts 17°
2026-04-26 19:01 50.87704 7.12517 224 ft 8 kts 19°
2026-04-26 19:01 50.87743 7.12536 224 ft 0 kts 18°
2026-04-26 19:01 50.87754 7.12544 224 ft 13 kts 25°
2026-04-26 19:02 50.87788 7.12562 224 ft 9 kts 203°
2026-04-26 19:02 50.87667 7.12498 224 ft 19 kts 197°
2026-04-26 19:02 50.87581 7.12455 224 ft 11 kts 199°
2026-04-26 19:02 50.87534 7.12419 224 ft 10 kts 238°
2026-04-26 19:03 50.87570 7.12281 224 ft 12 kts 302°
2026-04-26 19:03 50.87603 7.12178 224 ft 6 kts 299°
2026-04-26 19:03 50.87602 7.12129 224 ft 8 kts 204°
2026-04-26 19:03 50.87557 7.12092 224 ft 0 kts 208°